Location: Barcelona
(41.3830°N, 2.1830°E)
Time: 08:59:15
(UTC+01:00)

ISS - Pass Details

Date: 18 November 2017
Orbit: 402 x 407 km, 51.6° (Epoch: 21 November)

Event Time Altitude Azimuth Distance (km) Brightness Sun altitude
Exits shadow 05:31:17 28° 128° (SE) 780 -1.9 -24.6°
Drops below altitude 10° 05:32:59 10° 127° (SE) 1,447 -0.3 -24.3°
Sets 05:35:03 0° 127° (SE) 2,303 0.9 -23.9°
